User: anonymous   Login
Location: Les Jeannots
(43.2262°N, 5.5774°E)
Time: 11:58:46
(UTC+00:00)
Language:

Cosmos 2151 - Orbit

View from above orbital plane
View from above orbital plane
View from above satellite
View from above satellite

Ground track
Ground track

The orbit data is extracted from the following two-line orbital elements,

1 21422U 91042A   20270.85207547  .00000131  00000-0  10349-4 0  9992
2 21422  82.5034 186.4087 0012603 253.1721 106.8117 14.92157231587089
Epoch (UTC): 26 September 2020 20:26:59
Eccentricity: 0.0012603
inclination: 82.5034°
perigee height: 582 km
apogee height: 600 km
right ascension of ascending node: 186.4087°
argument of perigee: 253.1721°
revolutions per day: 14.92157231
mean anomaly at epoch: 106.8117°
orbit number at epoch: 58708

The dashed part of the orbit path shows where the satellite is in the earth's shadow,  

DLR